Location: Henham
(51.9333°N, 0.2500°E)
Time: 05:58:42
(UTC+00:00)

Cosmos 1328 - Pass Details

Date: 23 October 2019
Orbit: 532 x 553 km, 82.5° (Epoch: 21 November)

Event Time Altitude Azimuth Distance (km) Brightness Sun altitude
Rises 17:21:33 0° 350° (N) 2,714 7.4 -5.7°
Reaches altitude 10° 17:23:44 10° 351° (N) 1,813 6.5 -6.0°
Maximum altitude 17:27:43 80° 78° (ENE) 552 3.7 -6.6°
Drops below altitude 10° 17:31:39 10° 167° (SSE) 1,786 6.4 -7.2°
Sets 17:33:47 0° 168° (SSE) 2,670 7.3 -7.6°
